Time,TemperatureF,DewpointF,PressureIn,WindDirection,WindDirectionDegrees,WindSpeedMPH,WindSpeedGustMPH,Humidity,HourlyPrecipIn,Conditions,Clouds,dailyrainin,SoftwareType,DateUTC
2013-05-28 00:02:00,53.0,52.0,29.70,West,281,4.0,-999.0,98,-99.99,,,-99.99,,2013-05-28 06:02:00,
2013-05-28 00:12:00,52.0,52.0,29.73,NW,325,4.0,-999.0,98,-99.99,,,-99.99,,2013-05-28 06:12:00,
2013-05-28 00:21:00,52.0,52.0,29.72,ENE,72,5.0,-999.0,98,-99.99,,,-99.99,,2013-05-28 06:21:00,
2013-05-28 00:32:00,52.0,51.0,29.72,NNE,31,4.0,-999.0,98,-99.99,,,-99.99,,2013-05-28 06:32:00,
2013-05-28 00:42:00,51.0,51.0,29.71,NW,322,5.0,-999.0,98,-99.99,,,-99.99,,2013-05-28 06:42:00,
2013-05-28 00:51:00,51.0,50.0,29.72,NNW,334,6.0,-999.0,98,-99.99,,,-99.99,,2013-05-28 06:51:00,
2013-05-28 01:01:00,50.0,50.0,29.71,NW,326,8.0,-999.0,98,-99.99,,,-99.99,,2013-05-28 07:01:00,
2013-05-28 01:11:00,50.0,50.0,29.72,NW,317,7.0,-999.0,98,-99.99,,,-99.99,,2013-05-28 07:11:00,
2013-05-28 01:21:00,50.0,49.0,29.74,NW,319,10.0,-999.0,98,-99.99,,,-99.99,,2013-05-28 07:21:00,
2013-05-28 01:32:00,50.0,50.0,29.71,WNW,300,10.0,-999.0,98,-99.99,,,-99.99,,2013-05-28 07:32:00,
2013-05-28 01:42:00,50.0,49.0,29.73,WNW,291,9.0,-999.0,98,-99.99,,,-99.99,,2013-05-28 07:42:00,
2013-05-28 01:52:00,51.0,51.0,29.73,WNW,294,6.0,-999.0,98,-99.99,,,-99.99,,2013-05-28 07:52:00,
2013-05-28 02:02:00,51.0,51.0,29.74,WNW,295,6.0,-999.0,98,-99.99,,,-99.99,,2013-05-28 08:02:00,
2013-05-28 02:12:00,52.0,51.0,29.73,NW,314,7.0,-999.0,98,-99.99,,,-99.99,,2013-05-28 08:12:00,
2013-05-28 02:22:00,51.0,51.0,29.72,NNW,342,5.0,-999.0,98,-99.99,,,-99.99,,2013-05-28 08:22:00,
2013-05-28 02:32:00,51.0,51.0,29.74,North,0,0.0,-999.0,98,-99.99,,,-99.99,,2013-05-28 08:32:00,
2013-05-28 02:42:00,51.0,51.0,29.74,WNW,285,4.0,-999.0,98,-99.99,,,-99.99,,2013-05-28 08:42:00,
2013-05-28 02:51:00,50.0,49.0,29.73,SW,236,4.0,-999.0,98,-99.99,,,-99.99,,2013-05-28 08:51:00,
2013-05-28 03:01:00,50.0,49.0,29.74,SW,220,3.0,-999.0,98,-99.99,,,-99.99,,2013-05-28 09:01:00,
2013-05-28 03:11:00,49.0,49.0,29.76,SW,216,6.0,-999.0,98,-99.99,,,-99.99,,2013-05-28 09:11:00,
2013-05-28 03:21:00,48.0,47.0,29.76,SSW,194,7.0,-999.0,98,-99.99,,,-99.99,,2013-05-28 09:21:00,
2013-05-28 03:33:00,48.0,47.0,29.73,SW,216,7.0,-999.0,98,-99.99,,,-99.99,,2013-05-28 09:33:00,
2013-05-28 03:42:00,48.0,47.0,29.74,SW,221,8.0,-999.0,98,-99.99,,,-99.99,,2013-05-28 09:42:00,
2013-05-28 03:53:00,48.0,47.0,29.74,SW,220,8.0,-999.0,98,-99.99,,,-99.99,,2013-05-28 09:53:00,
2013-05-28 04:03:00,48.0,47.0,29.75,SW,225,9.0,-999.0,98,-99.99,,,-99.99,,2013-05-28 10:03:00,
2013-05-28 04:12:00,48.0,47.0,29.75,WSW,238,9.0,-999.0,98,-99.99,,,-99.99,,2013-05-28 10:12:00,
2013-05-28 04:23:00,48.0,47.0,29.76,South,188,7.0,-999.0,98,-99.99,,,-99.99,,2013-05-28 10:23:00,
2013-05-28 04:32:00,49.0,48.0,29.77,SW,225,8.0,-999.0,98,-99.99,,,-99.99,,2013-05-28 10:32:00,
2013-05-28 04:42:00,49.0,48.0,29.75,SW,220,7.0,-999.0,98,-99.99,,,-99.99,,2013-05-28 10:42:00,
2013-05-28 04:53:00,48.0,47.0,29.75,SSW,208,7.0,-999.0,98,-99.99,,,-99.99,,2013-05-28 10:53:00,
2013-05-28 05:02:00,48.0,47.0,29.76,SW,231,9.0,-999.0,98,-99.99,,,-99.99,,2013-05-28 11:02:00,
2013-05-28 05:11:00,47.0,47.0,29.74,SSW,200,7.0,-999.0,98,-99.99,,,-99.99,,2013-05-28 11:11:00,
2013-05-28 05:22:00,48.0,47.0,29.74,SSW,209,8.0,-999.0,98,-99.99,,,-99.99,,2013-05-28 11:22:00,
2013-05-28 05:32:00,48.0,47.0,29.74,SW,226,8.0,-999.0,98,-99.99,,,-99.99,,2013-05-28 11:32:00,
2013-05-28 05:42:00,47.0,47.0,29.73,SSW,198,6.0,-999.0,98,-99.99,,,-99.99,,2013-05-28 11:42:00,
2013-05-28 05:52:00,48.0,47.0,29.76,SW,228,8.0,-999.0,98,-99.99,,,-99.99,,2013-05-28 11:52:00,
2013-05-28 06:01:00,47.0,47.0,29.76,SW,235,10.0,-999.0,98,-99.99,,,-99.99,,2013-05-28 12:01:00,
2013-05-28 06:11:00,47.0,46.0,29.71,WSW,245,7.0,-999.0,98,-99.99,,,-99.99,,2013-05-28 12:11:00,
2013-05-28 06:21:00,46.0,46.0,29.75,SW,234,9.0,-999.0,98,-99.99,,,-99.99,,2013-05-28 12:21:00,
2013-05-28 06:32:00,47.0,47.0,29.74,SW,229,10.0,-999.0,98,-99.99,,,-99.99,,2013-05-28 12:32:00,
2013-05-28 06:42:00,48.0,47.0,29.73,WSW,238,12.0,-999.0,98,-99.99,,,-99.99,,2013-05-28 12:42:00,
2013-05-28 06:52:00,48.0,47.0,29.73,WSW,238,12.0,-999.0,98,-99.99,,,-99.99,,2013-05-28 12:52:00,
2013-05-28 07:01:00,50.0,49.0,29.72,WSW,246,15.0,-999.0,98,-99.99,,,-99.99,,2013-05-28 13:01:00,
2013-05-28 07:11:00,51.0,50.0,29.73,WSW,257,14.0,-999.0,98,-99.99,,,-99.99,,2013-05-28 13:11:00,
2013-05-28 07:21:00,51.0,50.0,29.73,WSW,248,11.0,-999.0,97,-99.99,,,-99.99,,2013-05-28 13:21:00,
2013-05-28 07:32:00,52.0,50.0,29.73,WSW,244,12.0,-999.0,95,-99.99,,,-99.99,,2013-05-28 13:32:00,
2013-05-28 07:42:00,53.0,50.0,29.73,WSW,241,12.0,-999.0,92,-99.99,,,-99.99,,2013-05-28 13:42:00,
2013-05-28 07:52:00,53.0,50.0,29.72,SW,220,11.0,-999.0,90,-99.99,,,-99.99,,2013-05-28 13:52:00,
2013-05-28 08:02:00,54.0,49.0,29.72,SW,234,14.0,-999.0,84,-99.99,,,-99.99,,2013-05-28 14:02:00,
2013-05-28 08:11:00,55.0,50.0,29.72,WSW,238,14.0,-999.0,83,-99.99,,,-99.99,,2013-05-28 14:11:00,
2013-05-28 08:21:00,55.0,49.0,29.74,SW,236,18.0,-999.0,81,-99.99,,,-99.99,,2013-05-28 14:21:00,
2013-05-28 08:32:00,55.0,49.0,29.72,WSW,240,14.0,-999.0,80,-99.99,,,-99.99,,2013-05-28 14:32:00,
2013-05-28 08:42:00,56.0,50.0,29.71,WSW,238,13.0,-999.0,79,-99.99,,,-99.99,,2013-05-28 14:42:00,
2013-05-28 08:52:00,56.0,50.0,29.71,SW,234,14.0,-999.0,79,-99.99,,,-99.99,,2013-05-28 14:52:00,
2013-05-28 09:01:00,57.0,51.0,29.72,SW,230,17.0,-999.0,80,-99.99,,,-99.99,,2013-05-28 15:01:00,
2013-05-28 09:11:00,58.0,50.0,29.71,SW,232,14.0,-999.0,76,-99.99,,,-99.99,,2013-05-28 15:11:00,
2013-05-28 09:21:00,58.0,50.0,29.72,WSW,241,14.0,-999.0,74,-99.99,,,-99.99,,2013-05-28 15:21:00,
2013-05-28 09:32:00,59.0,50.0,29.71,SW,236,15.0,-999.0,71,-99.99,,,-99.99,,2013-05-28 15:32:00,
2013-05-28 09:43:00,60.0,50.0,29.71,WSW,240,10.0,-999.0,72,-99.99,,,-99.99,,2013-05-28 15:43:00,
2013-05-28 09:52:00,60.0,49.0,29.70,SW,234,12.0,-999.0,67,-99.99,,,-99.99,,2013-05-28 15:52:00,
2013-05-28 10:03:00,61.0,48.0,29.72,WSW,249,13.0,-999.0,62,-99.99,,,-99.99,,2013-05-28 16:03:00,
2013-05-28 10:12:00,61.0,48.0,29.72,WSW,240,13.0,-999.0,62,-99.99,,,-99.99,,2013-05-28 16:12:00,
2013-05-28 10:22:00,61.0,48.0,29.72,WSW,240,13.0,-999.0,62,-99.99,,,-99.99,,2013-05-28 16:22:00,
2013-05-28 10:33:00,63.0,47.0,29.70,WSW,241,13.0,-999.0,57,-99.99,,,-99.99,,2013-05-28 16:33:00,
2013-05-28 10:42:00,62.0,48.0,29.72,SW,221,10.0,-999.0,60,-99.99,,,-99.99,,2013-05-28 16:42:00,
2013-05-28 10:52:00,63.0,49.0,29.71,West,268,10.0,-999.0,60,-99.99,,,-99.99,,2013-05-28 16:52:00,
2013-05-28 11:02:00,63.0,48.0,29.71,WSW,252,12.0,-999.0,57,-99.99,,,-99.99,,2013-05-28 17:02:00,
2013-05-28 11:12:00,64.0,49.0,29.69,SW,218,9.0,-999.0,58,-99.99,,,-99.99,,2013-05-28 17:12:00,
2013-05-28 11:22:00,65.0,49.0,29.71,West,267,5.0,-999.0,57,-99.99,,,-99.99,,2013-05-28 17:22:00,
2013-05-28 11:32:00,65.0,50.0,29.70,SW,234,10.0,-999.0,57,-99.99,,,-99.99,,2013-05-28 17:32:00,
2013-05-28 11:42:00,65.0,48.0,29.71,SW,224,8.0,-999.0,54,-99.99,,,-99.99,,2013-05-28 17:42:00,
2013-05-28 11:51:00,65.0,50.0,29.71,SSW,213,13.0,-999.0,57,-99.99,,,-99.99,,2013-05-28 17:51:00,
2013-05-28 12:01:00,66.0,48.0,29.73,SW,220,11.0,-999.0,53,-99.99,,,-99.99,,2013-05-28 18:01:00,
2013-05-28 12:11:00,66.0,50.0,29.71,SW,236,3.0,-999.0,55,-99.99,,,-99.99,,2013-05-28 18:11:00,
2013-05-28 12:21:00,66.0,48.0,29.71,West,262,3.0,-999.0,52,-99.99,,,-99.99,,2013-05-28 18:21:00,
2013-05-28 12:32:00,67.0,48.0,29.71,WNW,286,3.0,-999.0,51,-99.99,,,-99.99,,2013-05-28 18:32:00,
2013-05-28 12:42:00,67.0,47.0,29.71,WSW,247,2.0,-999.0,49,-99.99,,,-99.99,,2013-05-28 18:42:00,
2013-05-28 12:52:00,67.0,47.0,29.71,WSW,247,2.0,-999.0,49,-99.99,,,-99.99,,2013-05-28 18:52:00,
2013-05-28 13:01:00,69.0,45.0,29.70,SW,220,6.0,-999.0,43,-99.99,,,-99.99,,2013-05-28 19:01:00,
2013-05-28 13:11:00,68.0,45.0,29.71,West,274,2.0,-999.0,43,-99.99,,,-99.99,,2013-05-28 19:11:00,
2013-05-28 13:21:00,69.0,48.0,29.71,West,262,3.0,-999.0,48,-99.99,,,-99.99,,2013-05-28 19:21:00,
2013-05-28 13:32:00,69.0,46.0,29.69,North,0,0.0,-999.0,45,-99.99,,,-99.99,,2013-05-28 19:32:00,
2013-05-28 13:42:00,70.0,46.0,29.69,WSW,242,2.0,-999.0,43,-99.99,,,-99.99,,2013-05-28 19:42:00,
2013-05-28 13:52:00,70.0,45.0,29.69,SE,126,4.0,-999.0,41,-99.99,,,-99.99,,2013-05-28 19:52:00,
2013-05-28 14:01:00,69.0,44.0,29.69,NNE,19,2.0,-999.0,40,-99.99,,,-99.99,,2013-05-28 20:01:00,
2013-05-28 14:11:00,70.0,42.0,29.69,ENE,65,7.0,-999.0,37,-99.99,,,-99.99,,2013-05-28 20:11:00,
2013-05-28 14:22:00,69.0,41.0,29.68,ESE,122,6.0,-999.0,36,-99.99,,,-99.99,,2013-05-28 20:22:00,
2013-05-28 14:32:00,71.0,45.0,29.68,SSE,148,4.0,-999.0,39,-99.99,,,-99.99,,2013-05-28 20:32:00,
2013-05-28 14:42:00,70.0,46.0,29.69,ESE,117,6.0,-999.0,42,-99.99,,,-99.99,,2013-05-28 20:42:00,
2013-05-28 14:52:00,70.0,44.0,29.68,East,86,6.0,-999.0,38,-99.99,,,-99.99,,2013-05-28 20:52:00,
2013-05-28 15:02:00,71.0,46.0,29.68,East,88,5.0,-999.0,41,-99.99,,,-99.99,,2013-05-28 21:02:00,
2013-05-28 15:11:00,71.0,48.0,29.66,East,97,11.0,-999.0,45,-99.99,,,-99.99,,2013-05-28 21:11:00,
2013-05-28 15:21:00,71.0,47.0,29.69,East,99,6.0,-999.0,43,-99.99,,,-99.99,,2013-05-28 21:21:00,
2013-05-28 15:33:00,71.0,47.0,29.67,East,86,7.0,-999.0,42,-99.99,,,-99.99,,2013-05-28 21:33:00,
2013-05-28 15:43:00,71.0,46.0,29.67,East,83,11.0,-999.0,41,-99.99,,,-99.99,,2013-05-28 21:43:00,
2013-05-28 15:53:00,71.0,45.0,29.66,SE,138,5.0,-999.0,39,-99.99,,,-99.99,,2013-05-28 21:53:00,
2013-05-28 16:02:00,71.0,48.0,29.67,ENE,67,13.0,-999.0,44,-99.99,,,-99.99,,2013-05-28 22:02:00,
2013-05-28 16:12:00,70.0,47.0,29.65,NE,53,9.0,-999.0,44,-99.99,,,-99.99,,2013-05-28 22:12:00,
2013-05-28 16:22:00,71.0,48.0,29.66,ENE,77,11.0,-999.0,44,-99.99,,,-99.99,,2013-05-28 22:22:00,
2013-05-28 16:32:00,70.0,46.0,29.64,East,96,10.0,-999.0,43,-99.99,,,-99.99,,2013-05-28 22:32:00,
2013-05-28 16:42:00,70.0,46.0,29.66,ENE,75,11.0,-999.0,43,-99.99,,,-99.99,,2013-05-28 22:42:00,
2013-05-28 16:52:00,70.0,47.0,29.67,East,89,9.0,-999.0,44,-99.99,,,-99.99,,2013-05-28 22:52:00,
2013-05-28 17:02:00,69.0,48.0,29.64,ENE,62,8.0,-999.0,47,-99.99,,,-99.99,,2013-05-28 23:02:00,
2013-05-28 17:11:00,69.0,47.0,29.65,ENE,71,12.0,-999.0,46,-99.99,,,-99.99,,2013-05-28 23:11:00,
2013-05-28 17:21:00,69.0,48.0,29.64,ENE,60,12.0,-999.0,48,-99.99,,,-99.99,,2013-05-28 23:21:00,
2013-05-28 17:32:00,68.0,52.0,29.64,ENE,68,10.0,-999.0,55,-99.99,,,-99.99,,2013-05-28 23:32:00,
2013-05-28 17:42:00,68.0,51.0,29.65,ENE,69,12.0,-999.0,54,-99.99,,,-99.99,,2013-05-28 23:42:00,
2013-05-28 17:52:00,67.0,50.0,29.65,ENE,76,15.0,-999.0,53,-99.99,,,-99.99,,2013-05-28 23:52:00,
2013-05-28 18:02:00,67.0,51.0,29.63,ENE,59,11.0,-999.0,56,-99.99,,,-99.99,,2013-05-29 00:02:00,
2013-05-28 18:11:00,67.0,51.0,29.64,ENE,66,13.0,-999.0,58,-99.99,,,-99.99,,2013-05-29 00:11:00,
2013-05-28 18:21:00,66.0,51.0,29.65,ENE,64,13.0,-999.0,58,-99.99,,,-99.99,,2013-05-29 00:21:00,
2013-05-28 18:32:00,66.0,51.0,29.65,ENE,64,13.0,-999.0,58,-99.99,,,-99.99,,2013-05-29 00:32:00,
2013-05-28 18:42:00,65.0,52.0,29.64,ENE,70,13.0,-999.0,62,-99.99,,,-99.99,,2013-05-29 00:42:00,
2013-05-28 18:52:00,65.0,52.0,29.65,NE,38,6.0,-999.0,64,-99.99,,,-99.99,,2013-05-29 00:52:00,
2013-05-28 19:01:00,64.0,55.0,29.67,West,273,9.0,-999.0,73,-99.99,,,-99.99,,2013-05-29 01:01:00,
2013-05-28 19:11:00,61.0,55.0,29.71,SW,221,30.0,-999.0,82,-99.99,,,-99.99,,2013-05-29 01:11:00,
2013-05-28 19:22:00,60.0,52.0,29.69,SSW,192,8.0,-999.0,74,-99.99,,,-99.99,,2013-05-29 01:22:00,
2013-05-28 19:32:00,59.0,53.0,29.71,South,176,7.0,-999.0,80,-99.99,,,-99.99,,2013-05-29 01:32:00,
2013-05-28 19:42:00,58.0,51.0,29.71,SSE,154,9.0,-999.0,78,-99.99,,,-99.99,,2013-05-29 01:42:00,
2013-05-28 19:52:00,58.0,51.0,29.71,SSE,154,9.0,-999.0,78,-99.99,,,-99.99,,2013-05-29 01:52:00,
2013-05-28 20:02:00,57.0,52.0,29.67,ESE,111,27.0,-999.0,84,-99.99,,,-99.99,,2013-05-29 02:02:00,
2013-05-28 20:12:00,57.0,51.0,29.65,ESE,109,35.0,-999.0,82,-99.99,,,-99.99,,2013-05-29 02:12:00,
2013-05-28 20:21:00,56.0,52.0,29.68,ESE,121,28.0,-999.0,85,-99.99,,,-99.99,,2013-05-29 02:21:00,
2013-05-28 20:32:00,55.0,53.0,29.67,SE,128,24.0,-999.0,90,-99.99,,,-99.99,,2013-05-29 02:32:00,
2013-05-28 20:42:00,54.0,53.0,29.66,ESE,110,24.0,-999.0,93,-99.99,,,-99.99,,2013-05-29 02:42:00,
2013-05-28 20:51:00,54.0,53.0,29.66,ESE,110,24.0,-999.0,93,-99.99,,,-99.99,,2013-05-29 02:51:00,
2013-05-28 21:02:00,54.0,52.0,29.61,ESE,106,27.0,-999.0,94,-99.99,,,-99.99,,2013-05-29 03:02:00,
2013-05-28 21:12:00,56.0,50.0,29.65,East,101,27.0,-999.0,82,-99.99,,,-99.99,,2013-05-29 03:12:00,
2013-05-28 21:21:00,56.0,51.0,29.66,ESE,122,27.0,-999.0,85,-99.99,,,-99.99,,2013-05-29 03:21:00,
2013-05-28 21:33:00,55.0,51.0,29.64,ESE,104,30.0,-999.0,85,-99.99,,,-99.99,,2013-05-29 03:33:00,
2013-05-28 21:43:00,56.0,50.0,29.62,East,101,32.0,-999.0,82,-99.99,,,-99.99,,2013-05-29 03:43:00,
2013-05-28 21:53:00,56.0,50.0,29.66,ESE,111,30.0,-999.0,78,-99.99,,,-99.99,,2013-05-29 03:53:00,
2013-05-28 22:02:00,56.0,51.0,29.69,ESE,119,22.0,-999.0,83,-99.99,,,-99.99,,2013-05-29 04:02:00,
2013-05-28 22:13:00,55.0,51.0,29.69,ESE,120,28.0,-999.0,85,-99.99,,,-99.99,,2013-05-29 04:13:00,
2013-05-28 22:23:00,55.0,51.0,29.69,ESE,104,30.0,-999.0,86,-99.99,,,-99.99,,2013-05-29 04:23:00,
2013-05-28 22:33:00,55.0,50.0,29.69,ESE,118,26.0,-999.0,83,-99.99,,,-99.99,,2013-05-29 04:33:00,
2013-05-28 22:42:00,56.0,50.0,29.69,SE,132,20.0,-999.0,80,-99.99,,,-99.99,,2013-05-29 04:42:00,
2013-05-28 22:52:00,55.0,51.0,29.73,SE,141,15.0,-999.0,87,-99.99,,,-99.99,,2013-05-29 04:52:00,
2013-05-28 23:02:00,55.0,51.0,29.72,SE,134,21.0,-999.0,87,-99.99,,,-99.99,,2013-05-29 05:02:00,
2013-05-28 23:12:00,54.0,51.0,29.71,SE,126,19.0,-999.0,90,-99.99,,,-99.99,,2013-05-29 05:12:00,
2013-05-28 23:22:00,54.0,51.0,29.68,ESE,107,21.0,-999.0,89,-99.99,,,-99.99,,2013-05-29 05:22:00,
2013-05-28 23:32:00,54.0,51.0,29.68,SE,128,21.0,-999.0,90,-99.99,,,-99.99,,2013-05-29 05:32:00,
2013-05-28 23:42:00,54.0,51.0,29.68,ESE,103,13.0,-999.0,89,-99.99,,,-99.99,,2013-05-29 05:42:00,
2013-05-28 23:52:00,54.0,51.0,29.66,East,82,12.0,-999.0,89,-99.99,,,-99.99,,2013-05-29 05:52:00,